Regional Weather Roundup
Issued by NWS Goodland, KS

Home | Current Version | Previous Version | Text Only | Print | Product List | Glossary On
Versions: 1 2 3 4 5 6 7 8 9 10 11 12 13 14 15 16 17 18 19 20 21 22 23 24 25 26 27 28 29 30 31 32 33 34 35 36 37 38 39 40 41 42 43 44 45 46 47 48 49 50
000
ASUS43 KGLD 211308
RWRGLD

GOODLAND FORECAST AREA HOURLY WEATHER ROUNDUP
NATIONAL WEATHER SERVICE GOODLAND KS
700 AM MDT MON APR 21 2014

...OFFICIAL OBSERVATIONS...

CITY           SKY/WX    TMP DP  RH WIND       PRES   REMARKS
GOODLAND KS    SUNNY     47  34  60 N16       30.18R
HILL CITY KS   CLOUDY    55  54  96 NW6       30.08R
IMPERIAL NEB   SUNNY     46  29  51 N12       30.19R
MCCOOK NEB     SUNNY     53  31  42 N18       30.13R
AKRON CO       MOCLDY    42  29  59 W9        30.26R
BURLINGTON CO  PTCLDY    46  31  55 N13       30.20R
LIMON CO       PTCLDY    41  32  70 NW15      30.29R
$$

...UNOFFICIAL OBSERVATIONS...

CITY           SKY/WX    TMP DP  RH WIND       PRES   REMARKS
COLBY KS       SUNNY     52  39  62 N17       30.14R
LENORA KS        N/A     52  32  46 N12         N/A
LEOTI KS         N/A     51  32  47 NW10        N/A
NORTON KS      SUNNY     52  41  66 N13G18    30.10R
OBERLIN KS     FAIR      50  37  62 N12       30.12R
SHARON SPRINGS   N/A     50  39  65 N15         N/A
ST FRANCIS KS  SUNNY     50  28  43 N12       30.19R
WAKEENEY KS      N/A     55  53  93 MISG        N/A
KIT CARSON CO    N/A     46  32  59 MISG        N/A
WRAY CO        FAIR      45  34  65 NW6       30.22R
$$



USA.gov is the U.S. government's official web portal to all federal, state and local government web resources and services.